Location: Ladrillo (historical)
(32.8195°N, 117.2231°W)
Time: 00:19:01
(UTC+00:00)

Altair - Pass Details

Date: 05 March 2021
Orbit: 1501 x 1683 km, 47.2° (Epoch: 16 April)

Event Time Altitude Azimuth Distance (km) Brightness Sun altitude
Rises 04:21:57 0° 282° (WNW) 4,645 11.1 -32.7°
Reaches altitude 10° 04:25:23 10° 292° (WNW) 3,677 10.3 -33.4°
Maximum altitude 04:33:36 34° 354° (N) 2,343 8.5 -35.1°
Enters shadow 04:36:39 28° 27° (NNE) 2,589 8.5 -35.7°
